[[{"header":{"parameterUnit":"m.s-1","parameterCategory":1,"la1":30.2991,"la2":30.254,"lo1":-89.0895,"lo2":-89.0444,"dy":0.0017,"dx":0.0017,"nx":28,"ny":28,"refTime":"2024-06-05T03:00:00:Z","depth":0,"parameterNumber":2,"parameterNumberName":"U-component_of_WINDS"},"data":[0,0,0,0,0,0,0,0,0,0,0,0,0,0,0,0,0,0,0,0,0,0,0,0,0,0,0,0,0,0,0,0,0,0,0,0,0,0,0,0,0,0,0,0,0,0,0,0,0,0,0,0,0,0,0,0,0,0,-1.0851,-1.0852,0,-1.092,-1.0921,-1.0921,-1.094,-1.094,-1.094,-1.0939,-1.1011,-1.1013,-1.1016,0,0,0,0,0,0,0,0,0,0,0,0,0,-1.074,-1.0742,-1.0851,-1.0852,-1.0853,-1.092,-1.0921,-1.0921,-1.094,-1.094,-1.094,-1.0939,-1.101,-1.1013,-1.1016,0,0,0,0,0,0,0,0,0,0,0,0,0,-1.0796,-1.0742,-1.0851,-1.087,-1.0873,-1.0919,-1.0921,-1.0922,-1.0941,-1.094,-1.0939,-1.0939,-1.1009,-1.1013,-1.1016,-1.1049,0,0,-1.1027,-1.1028,0,0,0,0,0,0,0,0,-1.0793,-1.08,-1.0867,-1.0869,-1.0872,-1.0921,-1.0908,-1.0964,-1.0941,-1.0915,-1.0939,-1.0939,-1.0982,-1.0987,-1.1002,-1.1052,-1.1055,-1.1027,-1.1029,-1.103,-1.1031,0,0,0,0,0,0,0,-1.0789,-1.0797,-1.0878,-1.0868,-1.0871,-1.0877,-1.0884,-1.0918,-1.0951,-1.0917,-1.0919,-1.0926,-1.0983,-1.0998,-1.1003,-1.1057,-1.1027,-1.103,-1.1032,-1.1033,-1.114,-1.114,0,0,0,0,0,0,-1.0781,-1.0794,-1.0876,-1.088,-1.083,-1.0879,-1.0887,-1.0906,-1.095,-1.0957,-1.0927,-1.0927,-1.0993,-1.0999,-1.1006,-1.1048,-1.103,-1.1034,-1.1036,-1.1139,-1.114,-1.1141,0,0,0,0,0,0,-1.0779,-1.0789,-1.0873,-1.0838,-1.0849,-1.0882,-1.0902,-1.0907,-1.0923,-1.0958,-1.0964,-1.0936,-1.0992,-1.1001,-1.1038,-1.1051,-1.1035,-1.1038,-1.1138,-1.1139,-1.114,-1.1133,0,0,0,0,0,0,-1.0776,-1.0787,-1.08,-1.0838,-1.0851,-1.0904,-1.0903,-1.0909,-1.0928,-1.0929,-1.0968,-1.0974,-1.0993,-1.1033,-1.1042,-1.1055,-1.1041,-1.1137,-1.1138,-1.114,-1.1132,-1.1133,-1.1135,0,0,0,0,0,-1.0772,-1.0795,-1.08,-1.081,-1.0866,-1.0904,-1.0912,-1.0932,-1.0929,-1.0942,-1.0965,-1.0973,-1.1048,-1.1037,-1.1047,-1.1062,-1.1136,-1.1138,-1.114,-1.1131,-1.1133,-1.1135,0,0,0,0,0,0,-1.0757,-1.08,-1.0806,-1.0842,-1.087,-1.0908,-1.0924,-1.0933,-1.0962,-1.0962,-1.0987,-1.0996,-1.1031,-1.105,-1.1037,-1.1097,-1.1093,-1.1096,-1.1083,-1.1085,-1.1086,-1.1081,-1.1044,0,0,0,0,0,-1.0759,-1.0785,-1.0821,-1.085,-1.0863,-1.0891,-1.0909,-1.0922,-1.0952,-1.0963,-1.0989,-1.1018,-1.1048,-1.1068,-1.1097,-1.1135,-1.1144,-1.115,-1.1151,-1.1152,-1.1155,-1.1178,-1.1181,-1.1146,-1.1146,-1.1146,0,0,-1.0761,-1.0788,-1.0803,-1.0848,-1.087,-1.0898,-1.0901,-1.093,-1.0952,-1.0968,-1.1005,-1.1025,-1.1059,-1.1096,-1.1114,-1.1113,-1.1167,-1.1155,-1.1155,-1.1158,-1.118,-1.1183,-1.1186,-1.1147,-1.1147,-1.1147,0,0,-1.078,-1.0802,-1.0829,-1.0852,-1.0886,-1.0905,-1.0911,-1.0948,-1.0962,-1.0999,-1.1013,-1.1039,-1.109,-1.1114,-1.1133,-1.1163,-1.1172,-1.1172,-1.1179,-1.1201,-1.1204,-1.1206,-1.1218,-1.1221,-1.1175,-1.1175,-1.1175,0,-1.0779,-1.0821,-1.0842,-1.0871,-1.089,-1.0906,-1.0934,-1.0956,-1.0998,-1.1012,-1.101,-1.1076,-1.11,-1.1144,-1.1151,-1.1166,-1.1175,-1.1167,-1.1201,-1.1204,-1.1207,-1.1218,-1.1222,-1.1175,-1.1175,-1.1175,-1.1175,0,-1.0818,-1.0847,-1.0865,-1.0905,-1.0927,-1.0955,-1.0982,-1.1001,-1.1013,-1.1033,-1.1071,-1.1101,-1.1137,-1.1149,-1.1161,-1.1195,-1.1194,-1.1196,-1.1193,-1.121,-1.1221,-1.1225,-1.1175,-1.1175,-1.1175,-1.1175,0,0,-1.083,-1.0882,-1.0888,-1.0907,-1.0947,-1.097,-1.1,-1.1035,-1.1052,-1.1081,-1.1107,-1.1151,-1.1154,-1.1176,-1.1191,-1.121,-1.1232,-1.121,-1.1211,-1.1214,-1.1274,-1.1272,-1.1276,-1.1239,-1.1239,-1.124,-1.1271,0,-1.0854,-1.0907,-1.0927,-1.097,-1.0998,-1.1015,-1.1041,-1.1068,-1.1088,-1.1115,-1.1137,-1.1168,-1.1169,-1.1182,-1.1201,-1.1225,-1.1245,-1.1223,-1.1264,-1.1265,-1.1255,-1.1282,-1.1279,-1.1307,-1.1275,-1.1276,-1.1277,0,-1.0889,-1.0919,-1.0965,-1.1002,-1.1014,-1.1037,-1.1072,-1.1097,-1.113,-1.1143,-1.1167,-1.1181,-1.1214,-1.1209,-1.1255,-1.124,-1.1258,-1.1273,-1.1274,-1.1279,-1.1272,-1.1288,-1.1316,-1.132,-1.1283,-1.1283,-1.1282,0,-1.0894,-1.0945,-1.0979,-1.0995,-1.1039,-1.1055,-1.1074,-1.1106,-1.1126,-1.1157,-1.1171,-1.1205,-1.1224,-1.1251,-1.1274,-1.1268,-1.1319,-1.1315,-1.1332,-1.1331,-1.1341,-1.1341,-1.1374,-1.1352,-1.1352,-1.1352,-1.1352,0,-1.0919,-1.0947,-1.0982,-1.1003,-1.1035,-1.1059,-1.109,-1.1111,-1.1139,-1.1166,-1.1182,-1.1207,-1.1236,-1.1265,-1.1283,-1.1319,-1.1328,-1.134,-1.1344,-1.1338,-1.1337,-1.1351,-1.135,-1.1353,-1.1353,-1.1353,-1.1353,0,-1.093,-1.0954,-1.0993,-1.1032,-1.1042,-1.1064,-1.1098,-1.112,-1.114,-1.1173,-1.1182,-1.1215,-1.125,-1.1276,-1.1321,-1.1333,-1.1372,-1.1377,-1.1361,-1.1363,-1.1378,-1.1377,-1.1422,-1.1429,-1.1402,-1.1403,-1.1403,0,-1.0944,-1.0966,-1.1007,-1.1026,-1.1045,-1.1074,-1.1095,-1.112,-1.1141,-1.1181,-1.1198,-1.1234,-1.1264,-1.1319,-1.1347,-1.1382,-1.1388,-1.1401,-1.1393,-1.1387,-1.1389,-1.1387,-1.139,-1.1402,-1.1402,-1.1403,-1.1403,0,-1.0968,-1.098,-1.1009,-1.1042,-1.1067,-1.1095,-1.1123,-1.1138,-1.1168,-1.1191,-1.1227,-1.125,-1.1296,-1.1332,-1.137,-1.1391,-1.1402,-1.1405,-1.1411,-1.1405,-1.1395,-1.1401,-1.1364,-1.1404,-1.1404,-1.1404,-1.1404,-1.1404,-1.0982,-1.1002,-1.1035,-1.1067,-1.1091,-1.1117,-1.114,-1.1163,-1.1193,-1.1232,-1.1245,-1.1282,-1.1315,-1.1367,-1.1389,-1.1419,-1.1419,-1.1427,-1.1429,-1.1431,-1.1431,-1.139,-1.1426,-1.1426,-1.1426,-1.1426,-1.1426,0,-1.1007,-1.1029,-1.1058,-1.1097,-1.1123,-1.1131,-1.1163,-1.1185,-1.1217,-1.1246,-1.1275,-1.1317,-1.1352,-1.1383,-1.142,-1.1438,-1.1444,-1.1447,-1.1446,-1.1451,-1.1428,-1.142,-1.1441,-1.1441,-1.1441,-1.1441,-1.1441,-1.1441,-1.1023,-1.1059,-1.1074,-1.1122,-1.1144,-1.1179,-1.1197,-1.1222,-1.1246,-1.1291,-1.132,-1.134,-1.1371,-1.141,-1.1443,-1.1452,-1.1465,-1.1466,-1.1476,-1.1454,-1.1452,-1.1451,-1.1443,-1.1469,-1.1469,-1.1496,-1.1496,-1.1496]},{"header":{"parameterUnit":"m.s-1","parameterCategory":1,"la1":30.2991,"la2":30.254,"lo1":-89.0895,"lo2":-89.0444,"dy":0.0017,"dx":0.0017,"nx":28,"ny":28,"refTime":"2024-06-05T03:00:00:Z","depth":0,"parameterNumber":3,"parameterNumberName":"V-component_of_WINDS"},"data":[0,0,0,0,0,0,0,0,0,0,0,0,0,0,0,0,0,0,0,0,0,0,0,0,0,0,0,0,0,0,0,0,0,0,0,0,0,0,0,0,0,0,0,0,0,0,0,0,0,0,0,0,0,0,0,0,0,0,5.3365,5.3366,0,5.3434,5.3434,5.3435,5.3371,5.3368,5.3366,5.3364,5.3428,5.3432,5.3436,0,0,0,0,0,0,0,0,0,0,0,0,0,5.3172,5.3176,5.3365,5.3366,5.3367,5.3434,5.3434,5.3435,5.3372,5.3368,5.3365,5.3362,5.3427,5.3432,5.3437,0,0,0,0,0,0,0,0,0,0,0,0,0,5.325,5.3177,5.3365,5.3343,5.3342,5.3433,5.3434,5.3436,5.3372,5.3368,5.3364,5.3361,5.3425,5.3431,5.3437,5.3552,0,0,5.3456,5.3459,0,0,0,0,0,0,0,0,5.3245,5.3257,5.3346,5.3345,5.3344,5.339,5.339,5.3474,5.3373,5.3361,5.3363,5.3359,5.3418,5.3425,5.3446,5.3555,5.3558,5.3457,5.346,5.3463,5.3465,0,0,0,0,0,0,0,5.324,5.3253,5.3392,5.3347,5.3346,5.3328,5.3334,5.3406,5.341,5.3361,5.3357,5.3366,5.3417,5.344,5.3447,5.3559,5.3456,5.3462,5.3466,5.3468,5.3763,5.3766,0,0,0,0,0,0,5.3238,5.3249,5.339,5.3394,5.3284,5.3334,5.3342,5.3379,5.3409,5.341,5.3369,5.3363,5.3431,5.344,5.3449,5.3583,5.3463,5.3469,5.3472,5.3758,5.3763,5.3768,0,0,0,0,0,0,5.3234,5.3251,5.3387,5.3321,5.3337,5.3342,5.3384,5.3382,5.3405,5.3415,5.3415,5.3393,5.3429,5.344,5.3527,5.3585,5.3472,5.3477,5.3754,5.376,5.3766,5.3855,0,0,0,0,0,0,5.3229,5.325,5.3296,5.3322,5.334,5.3466,5.3387,5.3386,5.3417,5.3409,5.3437,5.3438,5.3427,5.3518,5.3533,5.3591,5.3482,5.3748,5.3756,5.3764,5.3847,5.3863,5.3878,0,0,0,0,0,5.3222,5.3317,5.3298,5.3316,5.3398,5.347,5.348,5.3467,5.3422,5.3466,5.3472,5.3437,5.3576,5.3527,5.3543,5.3605,5.3745,5.3754,5.3763,5.384,5.386,5.3877,0,0,0,0,0,0,5.3296,5.332,5.33,5.3407,5.3437,5.3459,5.3515,5.3489,5.3531,5.3522,5.3501,5.3508,5.3599,5.3611,5.3556,5.3716,5.3653,5.3666,5.3705,5.3725,5.374,5.3735,5.3487,0,0,0,0,0,5.3325,5.3384,5.3401,5.3493,5.351,5.351,5.3541,5.3528,5.3557,5.3569,5.3581,5.361,5.3659,5.3693,5.3739,5.3848,5.3852,5.3898,5.3913,5.3926,5.3937,5.3993,5.4013,5.3798,5.3798,5.3798,0,0,5.3385,5.3406,5.3443,5.3509,5.3531,5.3589,5.3521,5.3586,5.3629,5.3578,5.3661,5.3671,5.3701,5.3798,5.3842,5.381,5.3997,5.3938,5.3948,5.3952,5.4005,5.4025,5.4043,5.3805,5.3804,5.3803,0,0,5.3524,5.3547,5.3626,5.3649,5.3683,5.3682,5.3701,5.3727,5.3732,5.3815,5.3777,5.3826,5.3913,5.3936,5.3959,5.4104,5.4073,5.412,5.42,5.4255,5.4272,5.4287,5.4337,5.4355,5.4131,5.4131,5.4131,0,5.3594,5.3683,5.3669,5.3737,5.3765,5.3724,5.3802,5.3824,5.3871,5.3891,5.3855,5.3963,5.398,5.4081,5.4117,5.4137,5.4156,5.4116,5.4271,5.4286,5.4299,5.4347,5.4366,5.4137,5.4136,5.4135,5.4135,0,5.3766,5.3828,5.3887,5.3935,5.397,5.4043,5.4037,5.4074,5.4058,5.406,5.4143,5.4162,5.4211,5.4234,5.4219,5.4333,5.4312,5.4274,5.421,5.4325,5.437,5.4388,5.4144,5.4142,5.4141,5.414,0,0,5.3954,5.3993,5.4015,5.4035,5.4069,5.4115,5.4184,5.4234,5.4265,5.4298,5.4354,5.4428,5.4393,5.4419,5.4405,5.4453,5.4565,5.4409,5.4409,5.4436,5.4689,5.4717,5.4739,5.4544,5.4548,5.4551,5.4686,0,5.4094,5.4217,5.4205,5.432,5.4376,5.4336,5.4396,5.4422,5.4426,5.4471,5.4474,5.4526,5.4477,5.4492,5.4538,5.4542,5.4615,5.4532,5.4594,5.4597,5.4587,5.4762,5.4792,5.4919,5.4704,5.4707,5.4709,0,5.4273,5.4314,5.4435,5.4459,5.4482,5.4537,5.4579,5.4625,5.4652,5.465,5.4679,5.4656,5.4723,5.4658,5.4749,5.4692,5.4717,5.4722,5.4727,5.4732,5.4659,5.477,5.496,5.4978,5.4736,5.4734,5.4732,0,5.4396,5.4481,5.4565,5.4583,5.4613,5.4652,5.4666,5.469,5.472,5.4756,5.4775,5.4819,5.4842,5.4875,5.4864,5.4818,5.4956,5.4891,5.4955,5.4956,5.4986,5.4984,5.5181,5.5004,5.5003,5.5003,5.5002,0,5.4552,5.4628,5.462,5.4671,5.4754,5.4738,5.4819,5.4828,5.4849,5.4899,5.4867,5.4914,5.4897,5.4943,5.4934,5.5009,5.502,5.5019,5.5016,5.5022,5.5022,5.5037,5.5028,5.5008,5.5007,5.5006,5.5005,0,5.4704,5.4702,5.479,5.4811,5.4818,5.4878,5.4895,5.4942,5.4942,5.5006,5.502,5.502,5.5071,5.5063,5.5121,5.5115,5.5208,5.5194,5.52,5.5196,5.526,5.5254,5.5473,5.55,5.5307,5.5308,5.531,0,5.4804,5.4861,5.4888,5.4921,5.4938,5.499,5.502,5.5006,5.5038,5.5072,5.5114,5.5164,5.5202,5.5286,5.529,5.5333,5.5319,5.5393,5.5325,5.5329,5.5319,5.5315,5.532,5.5406,5.5409,5.541,5.5412,0,5.498,5.4976,5.5022,5.5067,5.5104,5.5139,5.517,5.5197,5.5185,5.5223,5.5276,5.5306,5.5365,5.5413,5.5453,5.5465,5.5436,5.5433,5.545,5.5456,5.5456,5.5456,5.5235,5.5428,5.5426,5.5425,5.5424,5.5424,5.5108,5.5156,5.5183,5.5234,5.5256,5.5285,5.533,5.5336,5.5381,5.5428,5.5416,5.5476,5.5499,5.555,5.5566,5.5611,5.5584,5.5609,5.5615,5.5621,5.5628,5.545,5.5619,5.5618,5.5618,5.5617,5.5617,0,5.5281,5.5296,5.5344,5.5388,5.5428,5.5399,5.5431,5.5466,5.5519,5.5544,5.5583,5.5643,5.5689,5.5697,5.574,5.5774,5.5762,5.5786,5.5783,5.5786,5.5651,5.5631,5.5795,5.5795,5.5795,5.5795,5.5795,5.5795,5.5376,5.5456,5.5454,5.5544,5.5557,5.5617,5.5637,5.5663,5.5683,5.5752,5.5791,5.5796,5.5813,5.5857,5.5897,5.5898,5.5915,5.5944,5.5939,5.5813,5.5795,5.5778,5.576,5.5948,5.5948,5.607,5.6071,5.6072]}]]